• En Argentina
  • Lista de países
  • Para 7 días
  • Temperatura del agua
  • El tiempo en el mapa
  • Informadores
  • user-avatar
    Iniciar sesión

    Tiempo cada hora Abovyan

    Hoy, 31 Marzo, Martes

    Tiempo Temperatura Precipitaciones Viento Presión Humedad
    00:00 +7°C° 0 mm 3 mps 664 mmHg 59%
    01:00 +7°C° 0 mm 3 mps 665 mmHg 58%
    02:00 +7°C° 0 mm 3 mps 665 mmHg 57%
    03:00 +7°C° 0 mm 2 mps 665 mmHg 56%
    04:00 +6°C° 0 mm 2 mps 666 mmHg 57%
    05:00 +6°C° 0 mm 2 mps 666 mmHg 58%
    06:00 +6°C° 0 mm 2 mps 666 mmHg 59%
    07:00 +7°C° 0 mm 2 mps 667 mmHg 56%
    08:00 +9°C° 0 mm 3 mps 667 mmHg 52%
    09:00 +10°C° 0 mm 3 mps 668 mmHg 51%
    10:00 +11°C° 0 mm 3 mps 668 mmHg 49%
    11:00 +12°C° 0 mm 3 mps 668 mmHg 47%
    12:00 +13°C° 0 mm 4 mps 668 mmHg 46%
    13:00 +13°C° 0.1 mm 4 mps 668 mmHg 44%
    14:00 +14°C° 0.1 mm 4 mps 667 mmHg 43%
    15:00 +14°C° 0.1 mm 4 mps 667 mmHg 41%
    16:00 +14°C° 0.1 mm 4 mps 667 mmHg 44%
    17:00 +13°C° 0.1 mm 3 mps 667 mmHg 46%
    18:00 +12°C° 0.1 mm 3 mps 667 mmHg 49%
    19:00 +12°C° 0.1 mm 2 mps 667 mmHg 53%
    20:00 +10°C° 0.1 mm 2 mps 668 mmHg 56%
    21:00 +10°C° 0.1 mm 1 mps 668 mmHg 60%
    22:00 +10°C° 0 mm 1 mps 668 mmHg 61%
    23:00 +9°C° 0 mm 1 mps 668 mmHg 61%

    Mañana, 1 Abril, Miércoles

    Tiempo Temperatura Precipitaciones Viento Presión Humedad
    00:00 +9°C° 0 mm 1 mps 668 mmHg 62%
    01:00 +9°C° 0 mm 1 mps 668 mmHg 62%
    02:00 +9°C° 0 mm 1 mps 667 mmHg 63%
    03:00 +9°C° 0 mm 1 mps 667 mmHg 63%
    04:00 +8°C° 0 mm 1 mps 667 mmHg 64%
    05:00 +8°C° 0 mm 1 mps 667 mmHg 65%
    06:00 +8°C° 0 mm 1 mps 667 mmHg 66%
    07:00 +9°C° 0 mm 1 mps 667 mmHg 62%
    08:00 +10°C° 0 mm 1 mps 667 mmHg 58%
    09:00 +12°C° 0 mm 1 mps 668 mmHg 54%
    10:00 +10°C° 0.2 mm 2 mps 667 mmHg 57%
    11:00 +10°C° 0.2 mm 2 mps 666 mmHg 61%
    12:00 +10°C° 0.2 mm 2 mps 666 mmHg 65%
    13:00 +11°C° 0.1 mm 3 mps 666 mmHg 66%
    14:00 +11°C° 0.1 mm 3 mps 665 mmHg 66%
    15:00 +11°C° 0.1 mm 3 mps 665 mmHg 67%
    16:00 +10°C° 1.1 mm 3 mps 664 mmHg 71%
    17:00 +10°C° 1.1 mm 3 mps 664 mmHg 76%
    18:00 +9°C° 1.1 mm 2 mps 664 mmHg 80%
    19:00 +9°C° 1.2 mm 2 mps 664 mmHg 83%
    20:00 +9°C° 1.2 mm 2 mps 664 mmHg 85%
    21:00 +8°C° 1.2 mm 2 mps 664 mmHg 88%
    22:00 +8°C° 0.4 mm 2 mps 664 mmHg 88%
    23:00 +9°C° 0.4 mm 1 mps 663 mmHg 87%

    Pasado mañana, 2 Abril, Jueves

    Tiempo Temperatura Precipitaciones Viento Presión Humedad
    00:00 +9°C° 0.4 mm 1 mps 663 mmHg 87%
    01:00 +9°C° 0.1 mm 1 mps 663 mmHg 88%
    02:00 +9°C° 0.1 mm 1 mps 663 mmHg 88%
    03:00 +9°C° 0.1 mm 1 mps 663 mmHg 88%
    04:00 +8°C° 0.3 mm 2 mps 664 mmHg 87%
    05:00 +8°C° 0.3 mm 2 mps 664 mmHg 87%
    06:00 +8°C° 0.3 mm 2 mps 664 mmHg 86%
    07:00 +8°C° 0.1 mm 2 mps 665 mmHg 80%
    08:00 +9°C° 0.1 mm 2 mps 665 mmHg 74%
    09:00 +10°C° 0.1 mm 2 mps 666 mmHg 69%
    10:00 +11°C° 0.1 mm 3 mps 666 mmHg 64%
    11:00 +12°C° 0.1 mm 3 mps 666 mmHg 59%
    12:00 +13°C° 0.1 mm 4 mps 666 mmHg 54%
    13:00 +13°C° 0.1 mm 4 mps 666 mmHg 53%
    14:00 +14°C° 0.1 mm 4 mps 666 mmHg 51%
    15:00 +14°C° 0.1 mm 4 mps 666 mmHg 50%
    16:00 +13°C° 0 mm 3 mps 666 mmHg 51%
    17:00 +13°C° 0 mm 3 mps 666 mmHg 52%
    18:00 +12°C° 0 mm 3 mps 666 mmHg 52%
    19:00 +11°C° 0 mm 3 mps 666 mmHg 56%
    20:00 +10°C° 0 mm 2 mps 667 mmHg 59%
    21:00 +9°C° 0 mm 2 mps 667 mmHg 62%
    22:00 +10°C° 0 mm 1 mps 667 mmHg 62%
    23:00 +9°C° 0 mm 1 mps 667 mmHg 62%

    3 Abril, Viernes

    Tiempo Temperatura Precipitaciones Viento Presión Humedad
    00:00 +9°C° 0 mm 1 mps 667 mmHg 62%
    01:00 +9°C° 0 mm 1 mps 667 mmHg 64%
    02:00 +8°C° 0 mm 1 mps 667 mmHg 65%
    03:00 +8°C° 0 mm 1 mps 667 mmHg 67%
    04:00 +8°C° 0 mm 1 mps 667 mmHg 68%
    05:00 +8°C° 0 mm 1 mps 667 mmHg 69%
    06:00 +8°C° 0 mm 1 mps 667 mmHg 71%
    07:00 +9°C° 0 mm 1 mps 668 mmHg 66%
    08:00 +11°C° 0 mm 1 mps 668 mmHg 62%
    09:00 +12°C° 0 mm 2 mps 668 mmHg 58%
    10:00 +13°C° 0.1 mm 2 mps 668 mmHg 56%
    11:00 +14°C° 0.1 mm 2 mps 668 mmHg 54%
    12:00 +14°C° 0.1 mm 2 mps 668 mmHg 52%
    13:00 +14°C° 0.1 mm 3 mps 668 mmHg 49%
    14:00 +16°C° 0.1 mm 3 mps 668 mmHg 46%
    15:00 +16°C° 0.1 mm 3 mps 668 mmHg 43%
    16:00 +14°C° 0 mm 3 mps 667 mmHg 45%
    17:00 +15°C° 0 mm 2 mps 667 mmHg 47%
    18:00 +14°C° 0 mm 2 mps 667 mmHg 49%
    19:00 +14°C° 0 mm 2 mps 667 mmHg 51%
    20:00 +13°C° 0 mm 2 mps 668 mmHg 54%
    21:00 +13°C° 0 mm 2 mps 668 mmHg 57%
    22:00 +12°C° 0.2 mm 2 mps 668 mmHg 60%
    23:00 +12°C° 0.2 mm 2 mps 668 mmHg 64%

    4 Abril, Sábado

    Tiempo Temperatura Precipitaciones Viento Presión Humedad
    00:00 +10°C° 0.2 mm 2 mps 668 mmHg 67%
    01:00 +10°C° 0.2 mm 2 mps 668 mmHg 70%
    02:00 +9°C° 0.2 mm 2 mps 668 mmHg 72%
    03:00 +9°C° 0.2 mm 3 mps 668 mmHg 75%
    04:00 +9°C° 0.4 mm 2 mps 668 mmHg 76%
    05:00 +8°C° 0.4 mm 2 mps 668 mmHg 77%
    06:00 +9°C° 0.4 mm 1 mps 668 mmHg 78%
    07:00 +10°C° 0.2 mm 1 mps 668 mmHg 74%
    08:00 +11°C° 0.2 mm 1 mps 669 mmHg 70%
    09:00 +11°C° 0.2 mm 1 mps 669 mmHg 65%
    10:00 +12°C° 0.1 mm 2 mps 669 mmHg 59%
    11:00 +13°C° 0.1 mm 2 mps 669 mmHg 52%
    12:00 +13°C° 0.1 mm 3 mps 669 mmHg 45%
    13:00 +13°C° 0.3 mm 3 mps 669 mmHg 47%
    14:00 +13°C° 0.3 mm 3 mps 669 mmHg 48%
    15:00 +13°C° 0.3 mm 3 mps 669 mmHg 49%
    16:00 +13°C° 0.5 mm 2 mps 669 mmHg 52%
    17:00 +13°C° 0.5 mm 2 mps 670 mmHg 54%
    18:00 +12°C° 0.5 mm 2 mps 670 mmHg 56%
    19:00 +10°C° 0.2 mm 3 mps 670 mmHg 58%
    20:00 +9°C° 0.2 mm 3 mps 671 mmHg 61%
    21:00 +8°C° 0.2 mm 3 mps 671 mmHg 63%
    22:00 +8°C° 0 mm 3 mps 672 mmHg 62%
    23:00 +7°C° 0 mm 3 mps 672 mmHg 61%

    5 Abril, Domingo

    Tiempo Temperatura Precipitaciones Viento Presión Humedad
    00:00 +7°C° 0 mm 3 mps 672 mmHg 61%
    01:00 +7°C° 0 mm 2 mps 672 mmHg 61%
    02:00 +7°C° 0 mm 2 mps 672 mmHg 62%
    03:00 +6°C° 0 mm 2 mps 673 mmHg 63%
    04:00 +6°C° 0 mm 2 mps 673 mmHg 63%
    05:00 +6°C° 0 mm 2 mps 673 mmHg 63%
    06:00 +5°C° 0 mm 2 mps 673 mmHg 63%
    07:00 +7°C° 0 mm 2 mps 674 mmHg 59%
    08:00 +8°C° 0 mm 2 mps 674 mmHg 55%
    09:00 +10°C° 0 mm 2 mps 674 mmHg 52%
    10:00 +12°C° 0 mm 2 mps 674 mmHg 50%
    11:00 +13°C° 0 mm 1 mps 674 mmHg 48%
    12:00 +14°C° 0 mm 1 mps 673 mmHg 46%
    13:00 +14°C° 0 mm 1 mps 673 mmHg 44%
    14:00 +15°C° 0 mm 1 mps 673 mmHg 42%
    15:00 +15°C° 0 mm 1 mps 673 mmHg 41%
    16:00 +15°C° 0 mm 1 mps 673 mmHg 41%
    17:00 +15°C° 0 mm 1 mps 673 mmHg 42%
    18:00 +14°C° 0 mm 1 mps 673 mmHg 43%
    19:00 +13°C° 0 mm 1 mps 673 mmHg 45%
    20:00 +12°C° 0 mm 1 mps 673 mmHg 47%
    21:00 +11°C° 0 mm 1 mps 674 mmHg 49%
    22:00 +10°C° 0 mm 1 mps 673 mmHg 51%
    23:00 +10°C° 0 mm 1 mps 673 mmHg 52%
    Mostrar más